[[{"header":{"parameterUnit":"m.s-1","parameterCategory":1,"la1":30.2991,"la2":30.254,"lo1":-89.0895,"lo2":-89.0444,"dy":0.0017,"dx":0.0017,"nx":28,"ny":28,"refTime":"2024-05-23T21:00:00:Z","depth":0,"parameterNumber":2,"parameterNumberName":"U-component_of_WINDS"},"data":[0,0,0,0,0,0,0,0,0,0,0,0,0,0,0,0,0,0,0,0,0,0,0,0,0,0,0,0,0,0,0,0,0,0,0,0,0,0,0,0,0,0,0,0,0,0,0,0,0,0,0,0,0,0,0,0,0,0,-3.3263,-3.3263,0,-3.3287,-3.3287,-3.3287,-3.3238,-3.3236,-3.3235,-3.3233,-3.3257,-3.3259,-3.3261,0,0,0,0,0,0,0,0,0,0,0,0,0,-3.3175,-3.3177,-3.3263,-3.3263,-3.3264,-3.3287,-3.3287,-3.3287,-3.3238,-3.3236,-3.3234,-3.3233,-3.3256,-3.3259,-3.3261,0,0,0,0,0,0,0,0,0,0,0,0,0,-3.3207,-3.3177,-3.3263,-3.3242,-3.324,-3.3287,-3.3287,-3.3287,-3.3239,-3.3236,-3.3234,-3.3232,-3.3255,-3.3258,-3.3261,-3.3329,0,0,-3.3271,-3.3273,0,0,0,0,0,0,0,0,-3.3205,-3.3211,-3.3245,-3.3244,-3.3242,-3.3257,-3.3264,-3.3301,-3.3239,-3.3239,-3.3233,-3.3231,-3.3259,-3.3261,-3.3271,-3.333,-3.3331,-3.3271,-3.3273,-3.3275,-3.3276,0,0,0,0,0,0,0,-3.3203,-3.3209,-3.3272,-3.3245,-3.3244,-3.3231,-3.3233,-3.3271,-3.3262,-3.3239,-3.3236,-3.3239,-3.3257,-3.3268,-3.3271,-3.3331,-3.3271,-3.3274,-3.3276,-3.3277,-3.3447,-3.3449,0,0,0,0,0,0,-3.3204,-3.3208,-3.3272,-3.3273,-3.3217,-3.3235,-3.3237,-3.3255,-3.3262,-3.326,-3.3241,-3.3237,-3.3264,-3.3268,-3.3272,-3.3351,-3.3275,-3.3278,-3.3279,-3.3444,-3.3447,-3.345,0,0,0,0,0,0,-3.3202,-3.321,-3.3271,-3.3239,-3.3246,-3.3239,-3.3259,-3.3256,-3.3267,-3.3263,-3.3261,-3.3254,-3.3262,-3.3267,-3.3315,-3.3351,-3.3279,-3.3282,-3.3441,-3.3445,-3.3449,-3.351,0,0,0,0,0,0,-3.32,-3.321,-3.3235,-3.324,-3.3248,-3.3314,-3.3261,-3.3258,-3.3273,-3.3267,-3.3275,-3.3273,-3.3261,-3.3311,-3.3318,-3.3354,-3.3284,-3.3438,-3.3443,-3.3447,-3.3504,-3.3515,-3.3524,0,0,0,0,0,-3.3197,-3.3251,-3.3237,-3.3245,-3.328,-3.3316,-3.332,-3.3305,-3.3276,-3.3301,-3.3299,-3.3273,-3.3346,-3.3316,-3.3324,-3.3361,-3.3435,-3.3441,-3.3447,-3.35,-3.3513,-3.3524,0,0,0,0,0,0,-3.325,-3.3252,-3.3235,-3.3293,-3.3305,-3.3308,-3.3339,-3.3319,-3.3339,-3.3333,-3.3313,-3.3315,-3.3366,-3.3369,-3.3335,-3.3427,-3.3386,-3.3394,-3.3423,-3.3436,-3.3446,-3.3443,-3.3287,0,0,0,0,0,-3.3269,-3.3298,-3.3298,-3.3349,-3.3356,-3.3347,-3.3362,-3.3349,-3.336,-3.3364,-3.3365,-3.3377,-3.3402,-3.3419,-3.3443,-3.3505,-3.3506,-3.3535,-3.3545,-3.3553,-3.356,-3.3592,-3.3605,-3.3469,-3.3469,-3.3469,0,0,-3.3307,-3.3312,-3.3331,-3.336,-3.3367,-3.3397,-3.3351,-3.3385,-3.3407,-3.3369,-3.3414,-3.3416,-3.3427,-3.3483,-3.3507,-3.3486,-3.3597,-3.3561,-3.3567,-3.3569,-3.36,-3.3612,-3.3624,-3.3473,-3.3472,-3.3472,0,0,-3.3393,-3.34,-3.3443,-3.3451,-3.3463,-3.3457,-3.3468,-3.3473,-3.3473,-3.3518,-3.349,-3.3516,-3.3561,-3.357,-3.358,-3.367,-3.3647,-3.3679,-3.373,-3.3762,-3.3773,-3.3782,-3.3814,-3.3825,-3.3685,-3.3686,-3.3686,0,-3.3439,-3.3484,-3.3467,-3.3503,-3.3516,-3.3484,-3.3528,-3.3537,-3.3556,-3.3565,-3.3542,-3.3597,-3.3603,-3.3659,-3.3682,-3.3692,-3.3702,-3.3677,-3.3773,-3.3782,-3.3791,-3.382,-3.3832,-3.3689,-3.3689,-3.3688,-3.3688,0,-3.3539,-3.3571,-3.3605,-3.3624,-3.3641,-3.3681,-3.367,-3.3689,-3.3675,-3.3672,-3.3718,-3.3724,-3.3747,-3.376,-3.3747,-3.3815,-3.3802,-3.3776,-3.3734,-3.3808,-3.3835,-3.3846,-3.3694,-3.3693,-3.3692,-3.3691,0,0,-3.3658,-3.3668,-3.3681,-3.3689,-3.37,-3.3724,-3.3763,-3.3786,-3.3803,-3.3817,-3.3848,-3.3887,-3.3864,-3.3876,-3.3864,-3.3892,-3.3962,-3.3863,-3.3863,-3.388,-3.4037,-3.4055,-3.4069,-3.3947,-3.395,-3.3951,-3.4036,0,-3.3742,-3.3808,-3.3794,-3.3858,-3.3887,-3.3858,-3.3891,-3.3901,-3.3899,-3.3923,-3.3921,-3.3948,-3.3916,-3.3923,-3.395,-3.3948,-3.3993,-3.3942,-3.3975,-3.3977,-3.3972,-3.4083,-3.4102,-3.4181,-3.4046,-3.4048,-3.4049,0,-3.3848,-3.3867,-3.3934,-3.3941,-3.3952,-3.3983,-3.4003,-3.4027,-3.4038,-3.4034,-3.4049,-3.4031,-3.4068,-3.4027,-3.4079,-3.4044,-3.4057,-3.4059,-3.4061,-3.4063,-3.4017,-3.4086,-3.4206,-3.4218,-3.4066,-3.4065,-3.4064,0,-3.3927,-3.3969,-3.4014,-3.4023,-3.4032,-3.4054,-3.4059,-3.4068,-3.4083,-3.4101,-3.411,-3.4133,-3.4144,-3.4162,-3.4151,-3.4122,-3.4204,-3.4162,-3.4201,-3.4202,-3.4219,-3.4218,-3.4342,-3.423,-3.423,-3.4229,-3.4229,0,-3.4021,-3.4063,-3.405,-3.4078,-3.4124,-3.4108,-3.4155,-3.4156,-3.4164,-3.4192,-3.4168,-3.4194,-3.4178,-3.4203,-3.4195,-3.4239,-3.4244,-3.4242,-3.4239,-3.4244,-3.4244,-3.4251,-3.4245,-3.4232,-3.4232,-3.4231,-3.4231,0,-3.4116,-3.4109,-3.4156,-3.4162,-3.4164,-3.4198,-3.4202,-3.4228,-3.4224,-3.4259,-3.4267,-3.4261,-3.4289,-3.428,-3.4311,-3.4305,-3.436,-3.4351,-3.4356,-3.4353,-3.4393,-3.4389,-3.4525,-3.4542,-3.442,-3.4421,-3.4422,0,-3.4176,-3.4208,-3.4216,-3.4233,-3.424,-3.4267,-3.4283,-3.4269,-3.4286,-3.4301,-3.4325,-3.4352,-3.4372,-3.4418,-3.4417,-3.444,-3.443,-3.4476,-3.4433,-3.4437,-3.4429,-3.4427,-3.443,-3.4484,-3.4486,-3.4487,-3.4488,0,-3.4283,-3.4278,-3.4301,-3.4324,-3.4343,-3.4359,-3.4374,-3.4389,-3.4376,-3.4396,-3.4425,-3.4441,-3.4472,-3.4498,-3.4519,-3.4523,-3.4504,-3.4501,-3.4512,-3.4516,-3.4517,-3.4516,-3.4378,-3.4498,-3.4497,-3.4496,-3.4496,-3.4495,-3.4362,-3.4389,-3.4399,-3.4425,-3.4435,-3.4449,-3.4474,-3.4474,-3.4497,-3.4522,-3.4512,-3.4545,-3.4556,-3.4582,-3.4589,-3.4615,-3.4597,-3.4612,-3.4616,-3.4619,-3.4624,-3.4515,-3.4619,-3.4618,-3.4618,-3.4618,-3.4618,0,-3.4467,-3.4473,-3.4497,-3.4518,-3.4539,-3.4519,-3.4534,-3.4553,-3.4582,-3.4594,-3.4614,-3.4647,-3.4673,-3.4674,-3.4697,-3.4717,-3.4709,-3.4724,-3.4722,-3.4723,-3.4639,-3.4627,-3.473,-3.473,-3.473,-3.473,-3.473,-3.473,-3.4524,-3.4568,-3.4565,-3.4613,-3.4618,-3.465,-3.466,-3.4673,-3.4682,-3.472,-3.4741,-3.4742,-3.4749,-3.4773,-3.4796,-3.4795,-3.4804,-3.4823,-3.4819,-3.474,-3.4729,-3.4718,-3.4707,-3.4825,-3.4826,-3.4901,-3.4902,-3.4902]},{"header":{"parameterUnit":"m.s-1","parameterCategory":1,"la1":30.2991,"la2":30.254,"lo1":-89.0895,"lo2":-89.0444,"dy":0.0017,"dx":0.0017,"nx":28,"ny":28,"refTime":"2024-05-23T21:00:00:Z","depth":0,"parameterNumber":3,"parameterNumberName":"V-component_of_WINDS"},"data":[0,0,0,0,0,0,0,0,0,0,0,0,0,0,0,0,0,0,0,0,0,0,0,0,0,0,0,0,0,0,0,0,0,0,0,0,0,0,0,0,0,0,0,0,0,0,0,0,0,0,0,0,0,0,0,0,0,0,4.2919,4.2919,0,4.2939,4.2939,4.2939,4.291,4.2909,4.2908,4.2907,4.2925,4.2926,4.2928,0,0,0,0,0,0,0,0,0,0,0,0,0,4.2854,4.2856,4.2919,4.2919,4.292,4.2939,4.2939,4.2939,4.291,4.2909,4.2908,4.2907,4.2924,4.2926,4.2928,0,0,0,0,0,0,0,0,0,0,0,0,0,4.2879,4.2856,4.2919,4.2907,4.2907,4.2939,4.2939,4.2939,4.2911,4.2909,4.2907,4.2906,4.2924,4.2926,4.2928,4.2972,0,0,4.2935,4.2935,0,0,0,0,0,0,0,0,4.2878,4.2881,4.2909,4.2908,4.2907,4.292,4.2923,4.295,4.2911,4.2909,4.2907,4.2905,4.2925,4.2926,4.2933,4.2972,4.2973,4.2935,4.2936,4.2937,4.2938,0,0,0,0,0,0,0,4.2876,4.288,4.2927,4.2909,4.2908,4.2901,4.2902,4.2928,4.2925,4.2909,4.2907,4.291,4.2924,4.2931,4.2934,4.2973,4.2935,4.2937,4.2938,4.2939,4.305,4.3051,0,0,0,0,0,0,4.2876,4.2879,4.2926,4.2927,4.2889,4.2903,4.2905,4.2918,4.2925,4.2924,4.2911,4.2908,4.2929,4.2931,4.2934,4.2986,4.2937,4.2939,4.294,4.3048,4.305,4.3052,0,0,0,0,0,0,4.2875,4.288,4.2925,4.2903,4.2908,4.2906,4.292,4.2919,4.2927,4.2926,4.2925,4.292,4.2927,4.2931,4.2963,4.2986,4.294,4.2942,4.3046,4.3049,4.3051,4.309,0,0,0,0,0,0,4.2873,4.288,4.2897,4.2903,4.2909,4.2954,4.2922,4.292,4.2931,4.2927,4.2934,4.2934,4.2927,4.296,4.2965,4.2988,4.2943,4.3044,4.3047,4.305,4.3086,4.3093,4.3099,0,0,0,0,0,4.2871,4.2907,4.2898,4.2904,4.2931,4.2956,4.2959,4.2951,4.2933,4.2949,4.2949,4.2933,4.2983,4.2963,4.2969,4.2993,4.3042,4.3046,4.305,4.3083,4.3092,4.3099,0,0,0,0,0,0,4.2902,4.2907,4.2898,4.2937,4.2946,4.2951,4.2972,4.296,4.2974,4.297,4.2959,4.296,4.2995,4.2997,4.2975,4.3036,4.3009,4.3014,4.3033,4.3041,4.3047,4.3046,4.2945,0,0,0,0,0,4.2914,4.2935,4.2938,4.2972,4.2977,4.2974,4.2984,4.2978,4.2986,4.299,4.2992,4.3,4.3018,4.303,4.3046,4.3087,4.3088,4.3106,4.3112,4.3118,4.3122,4.3144,4.3152,4.3064,4.3064,4.3064,0,0,4.2938,4.2943,4.2957,4.2978,4.2985,4.3006,4.2977,4.3001,4.3016,4.2993,4.3023,4.3025,4.3034,4.3071,4.3087,4.3074,4.3147,4.3122,4.3127,4.3128,4.3149,4.3157,4.3165,4.3067,4.3066,4.3066,0,0,4.2992,4.2998,4.3028,4.3035,4.3046,4.3043,4.305,4.3057,4.3058,4.3088,4.3071,4.3089,4.312,4.3127,4.3134,4.3193,4.3178,4.3198,4.3231,4.3253,4.326,4.3266,4.3287,4.3295,4.3202,4.3202,4.3203,0,4.302,4.3053,4.3044,4.3069,4.3079,4.3061,4.309,4.3097,4.3112,4.3119,4.3104,4.3142,4.3147,4.3185,4.3199,4.3206,4.3214,4.3197,4.326,4.3266,4.3271,4.3291,4.3299,4.3205,4.3205,4.3204,4.3204,0,4.3087,4.3109,4.3132,4.3148,4.316,4.3187,4.3183,4.3196,4.3188,4.3188,4.3219,4.3224,4.3241,4.3249,4.3241,4.3286,4.3278,4.3262,4.3235,4.3282,4.3301,4.3308,4.3208,4.3207,4.3207,4.3206,0,0,4.3161,4.3173,4.3181,4.3189,4.3199,4.3216,4.3242,4.326,4.3272,4.3283,4.3304,4.3331,4.3316,4.3325,4.3317,4.3336,4.3382,4.3318,4.3318,4.333,4.3433,4.3445,4.3454,4.3373,4.3375,4.3376,4.3432,0,4.3216,4.3262,4.3256,4.33,4.3321,4.3304,4.3326,4.3335,4.3335,4.3352,4.3352,4.3371,4.335,4.3355,4.3373,4.3373,4.3403,4.3369,4.3393,4.3394,4.3391,4.3464,4.3476,4.3529,4.3439,4.344,4.3441,0,4.3286,4.3301,4.3348,4.3355,4.3364,4.3385,4.34,4.3417,4.3426,4.3425,4.3435,4.3425,4.345,4.3424,4.3459,4.3436,4.3445,4.3447,4.3449,4.345,4.342,4.3467,4.3546,4.3554,4.3452,4.3452,4.3451,0,4.3336,4.3367,4.34,4.3406,4.3416,4.3431,4.3436,4.3444,4.3455,4.3468,4.3475,4.3491,4.35,4.3513,4.3506,4.3487,4.3543,4.3515,4.3542,4.3542,4.3554,4.3554,4.3636,4.3561,4.3561,4.356,4.356,0,4.3398,4.3427,4.3422,4.3442,4.3474,4.3467,4.3498,4.3501,4.3508,4.3528,4.3513,4.3532,4.3523,4.354,4.3536,4.3566,4.3569,4.3569,4.3567,4.357,4.357,4.3576,4.3572,4.3562,4.3562,4.3562,4.3561,0,4.3459,4.3457,4.3491,4.3498,4.35,4.3524,4.353,4.3548,4.3547,4.3572,4.3577,4.3576,4.3596,4.3591,4.3613,4.361,4.3647,4.3641,4.3645,4.3643,4.367,4.3668,4.3759,4.377,4.3688,4.3689,4.3689,0,4.3499,4.3521,4.3531,4.3544,4.355,4.357,4.3582,4.3574,4.3587,4.36,4.3616,4.3636,4.365,4.3683,4.3684,4.37,4.3694,4.3725,4.3697,4.3699,4.3695,4.3694,4.3696,4.3731,4.3731,4.3732,4.3733,0,4.357,4.3568,4.3586,4.3603,4.3618,4.3631,4.3643,4.3654,4.3647,4.3662,4.3683,4.3695,4.3718,4.3737,4.3752,4.3756,4.3744,4.3742,4.3749,4.3752,4.3754,4.3753,4.366,4.374,4.3739,4.3739,4.3738,4.3738,4.3622,4.3641,4.3651,4.3671,4.368,4.3691,4.3709,4.3711,4.3728,4.3747,4.3742,4.3765,4.3774,4.3794,4.38,4.3818,4.3806,4.3816,4.3819,4.3822,4.3825,4.3751,4.3821,4.382,4.382,4.382,4.382,0,4.3692,4.3698,4.3717,4.3734,4.375,4.3738,4.375,4.3764,4.3786,4.3796,4.3811,4.3835,4.3853,4.3856,4.3873,4.3887,4.3882,4.3892,4.3891,4.3892,4.3834,4.3827,4.3896,4.3896,4.3896,4.3896,4.3896,4.3896,4.373,4.3763,4.3762,4.3798,4.3803,4.3828,4.3836,4.3846,4.3854,4.3882,4.3898,4.3899,4.3906,4.3923,4.394,4.394,4.3947,4.3959,4.3957,4.3903,4.3896,4.3889,4.3881,4.3961,4.3961,4.4013,4.4013,4.4014]}]]